Location: Deer Path Park
(40.5570°N, 74.8450°W)
Time: 10:39:15
(UTC-04:00)

Iridium 49 - Visible Passes

Search period start: 21 April 2015 00:00
Search period end: 01 May 2015 00:00
Orbit: 776 x 779 km, 86.4° (Epoch: 20 April)

Date Brightness Start Highest point End Pass type
(mag) Time Alt. Az. Time Alt. Az. Time Alt. Az.
21 Apr 8.4 01:11:50 17° NE 01:11:50 17° NE 01:13:38 10° NNE visible
21 Apr 7.6 02:52:19 28° NNW 02:52:19 28° NNW 02:55:03 10° NNW visible
22 Apr 7.4 02:18:50 34° N 02:18:50 34° N 02:21:45 10° N visible
23 Apr 7.7 01:45:21 31° NNE 01:45:21 31° NNE 01:48:09 10° N visible
23 Apr 8.2 03:25:50 14° NW 03:25:50 14° NW 03:27:20 10° NW visible
24 Apr 8.1 01:11:53 22° NE 01:11:53 22° NE 01:14:13 10° NNE visible
24 Apr 7.8 02:52:21 22° NW 02:52:21 22° NW 02:54:51 10° NNW visible
25 Apr 8.5 00:38:24 14° NE 00:38:24 14° NE 00:39:44 10° NE visible
25 Apr 7.5 02:18:52 31° NNW 02:18:52 31° NNW 02:21:45 10° N visible
26 Apr 7.5 01:45:23 35° N 01:45:23 35° N 01:48:20 10° N visible
27 Apr 7.7 01:11:53 28° NNE 01:11:53 28° NNE 01:14:36 10° NNE visible
27 Apr 8.0 02:52:21 17° NW 02:52:21 17° NW 02:54:25 10° NNW visible
28 Apr 8.1 00:38:23 19° NE 00:38:23 19° NE 00:40:30 10° NNE visible
28 Apr 7.6 02:18:51 27° NW 02:18:51 27° NW 02:21:38 10° NNW visible
29 Apr 8.5 00:04:53 12° ENE 00:04:53 12° ENE 00:05:37 10° NE visible
29 Apr 7.4 01:45:21 35° NNW 01:45:21 35° NNW 01:48:25 10° N visible
30 Apr 7.4 01:11:50 35° NNE 01:11:50 35° NNE 01:14:52 10° N visible
30 Apr 8.3 02:52:18 13° NW 02:52:18 13° NW 02:53:37 10° NW visible
